Simultaneous Nadir Overpasses (SNOs) Predictions

Prediction of SNOs between METOP-B and NPP Satellite Orbit:

Table of predicted SNOs for the next 14.0 days since TLE Epoch: 5/19/2015
Index Date (METOP-B) Time (METOP-B) Lat,Lon (METOP-B) SZA (METOP-B ) Date (NPP) Time (NPP) Lat,Lon (NPP) SZA (NPP ) Distance(km) Time Diff (sec)
1 06/01/2015 12:28:17 73.70, -12.70 51.64 06/01/2015 12:27:11 73.73, -15.79 51.80 96.36 66
2 06/01/2015 13:19:00 -73.64, 154.48 128.42 06/01/2015 13:17:53 -73.64, 151.75 128.31 85.52 67
3 06/01/2015 14:09:45 73.38, -38.79 51.33 06/01/2015 14:08:34 73.39, -40.37 51.42 50.53 71
4 06/01/2015 15:00:28 -73.32, 128.41 128.73 06/01/2015 14:59:16 -73.30, 127.16 128.70 40.01 72
5 06/01/2015 15:51:12 73.10, -64.73 51.07 06/01/2015 15:49:58 73.10, -65.10 51.09 11.75 74
6 06/01/2015 16:41:55 -73.04, 102.46 129.00 06/01/2015 16:40:41 -73.05, 102.32 128.97 4.85 74
7 06/01/2015 17:32:35 73.03, -90.24 50.99 06/01/2015 17:31:26 73.00, -90.27 50.98 3.12 69
8 06/01/2015 18:23:17 -73.02, 77.07 129.03 06/01/2015 18:22:10 -73.01, 77.04 129.03 1.81 67
9 06/01/2015 19:13:57 73.00,-115.63 50.96 06/01/2015 19:12:56 73.01,-115.66 50.97 1.01 61
10 06/01/2015 20:04:39 -72.99, 51.68 129.06 06/01/2015 20:03:40 -73.01, 51.65 129.03 2.23 59
11 06/01/2015 20:55:19 72.98,-141.02 50.92 06/01/2015 20:54:25 72.96,-140.94 50.92 3.25 54
12 06/01/2015 21:46:01 -72.97, 26.29 129.09 06/01/2015 21:45:09 -72.97, 26.37 129.09 2.67 52
13 06/01/2015 22:36:41 72.95,-166.41 50.89 06/01/2015 22:35:55 72.97,-166.32 50.91 3.40 46
14 06/01/2015 23:27:22 -73.00, 1.00 129.08 06/01/2015 23:26:39 -72.97, 0.98 129.09 2.47 43
15 06/02/2015 00:18:02 72.98, 168.30 50.91 06/02/2015 00:17:25 72.97, 168.29 50.91 0.63 37
16 06/02/2015 01:08:44 -72.97, -24.39 129.11 06/02/2015 01:08:09 -72.98, -24.41 129.09 1.17 35
17 06/02/2015 01:59:24 72.95, 142.91 50.88 06/02/2015 01:58:55 72.98, 142.90 50.91 3.00 29




NCC Satellite Simultaneous Nadir Overpasses (SNOs) Prediction Service
